N2DJ Weather Reports


Display with metric or nautical units.
time (UTC)temp
F
wind
direction
speed
MPH
gust
MPH
rain 1hr
in
rain 24hr
in
rain mn
in
humidity
%
barometer
mb
20260905190127 74 346 3.0 8.0 0.00 0.00 0.00 67 1015.1
20260905184618 72 13 1.0 9.0 0.00 0.00 0.00 68 1015.2
20260905183055 74 336 2.0 9.0 0.00 0.00 0.00 69 1015.1
20260905181555 73 31 2.0 11.0 0.00 0.00 0.00 70 1015.0
20260905180056 73 24 2.0 8.0 0.00 0.00 0.00 69 1015.0
20260905174557 72 48 2.0 5.0 0.00 0.00 0.00 71 1015.0
20260905173052 73 331 2.0 6.0 0.00 0.00 0.00 72 1015.1
20260905171552 73 323 2.0 6.0 0.00 0.00 0.00 69 1015.1
20260905170055 73 360 2.0 10.0 0.00 0.00 0.00 68 1015.0
20260905164550 73 345 3.0 11.0 0.00 0.00 0.00 67 1015.1
20260905163047 72 350 4.0 10.0 0.00 0.00 0.00 69 1015.1
20260905161546 72 299 3.0 10.0 0.00 0.00 0.00 71 1015.1
20260905160044 72 338 2.0 9.0 0.00 0.00 0.00 73 1015.2
20260905154542 72 5 3.0 9.0 0.00 0.00 0.00 74 1015.1
20260905153039 71 355 3.0 12.0 0.00 0.00 0.00 77 1015.2
20260905151537 71 351 3.0 8.0 0.00 0.00 0.00 77 1015.3
20260905150036 72 340 3.0 8.0 0.00 0.00 0.00 77 1015.4
20260905144540 71 46 3.0 10.0 0.00 0.00 0.00 78 1015.4
20260905143032 71 360 3.0 8.0 0.00 0.00 0.00 78 1015.2
20260905141530 70 360 2.0 8.0 0.00 0.00 0.00 78 1015.2
20260905140025 70 345 3.0 10.0 0.00 0.00 0.00 80 1015.3
20260905134520 69 5 0.0 6.0 0.00 0.00 0.00 83 1015.3
20260905133019 68 318 1.0 5.0 0.00 0.00 0.00 86 1015.5
20260905131530 67 303 2.0 6.0 0.00 0.00 0.00 93 1015.4
20260905130010 65 59 3.0 8.0 0.00 0.00 0.00 97 1015.4
20260905124505 64 43 1.0 4.0 0.00 0.00 0.00 99 1015.5
20260905123001 64 313 0.0 1.0 0.00 0.00 0.00 99 1015.6
20260905121558 63 331 0.0 2.0 0.00 0.00 0.00 99 1015.6
20260905120055 61 332 0.0 1.0 0.00 0.00 0.00 99 1015.5
20260905114552 60 333 0.0 0.0 0.00 0.00 0.00 99 1015.4
20260905113055 58 333 0.0 0.0 0.00 0.00 0.00 99 1015.2
20260905111556 57 333 0.0 0.0 0.00 0.00 0.00 99 1014.9
20260905110043 56 333 0.0 0.0 0.00 0.00 0.00 98 1014.7
20260905104542 56 333 0.0 0.0 0.00 0.00 0.00 98 1014.7
20260905103042 57 333 0.0 1.0 0.00 0.00 0.00 98 1014.7
20260905101542 57 333 0.0 0.0 0.00 0.00 0.00 98 1014.8
20260905100039 57 333 0.0 0.0 0.00 0.00 0.00 98 1014.6
20260905094538 57 333 0.0 0.0 0.00 0.00 0.00 98 1014.5
20260905093037 58 333 0.0 0.0 0.00 0.00 0.00 98 1014.5
20260905091538 58 333 0.0 0.0 0.00 0.00 0.00 98 1014.4
20260905090036 58 333 0.0 0.0 0.00 0.00 0.00 98 1014.0
20260905084556 58 333 0.0 0.0 0.00 0.00 0.00 98 1014.0
20260905083032 58 333 0.0 0.0 0.00 0.00 0.00 98 1013.9
20260905081531 59 333 0.0 0.0 0.00 0.00 0.00 98 1013.9
20260905080029 59 333 0.0 0.0 0.00 0.00 0.00 98 1013.8
20260905074528 59 333 0.0 0.0 0.00 0.00 0.00 98 1013.9
20260905073025 60 333 0.0 0.0 0.00 0.00 0.00 98 1014.0
20260905071525 60 333 0.0 0.0 0.00 0.00 0.00 98 1014.0
20260905070022 60 333 0.0 1.0 0.00 0.00 0.00 98 1014.1
20260905064528 60 332 0.0 2.0 0.00 0.00 0.00 98 1014.3
20260905063022 60 333 0.0 0.0 0.00 0.00 0.00 98 1014.3
20260905061519 60 333 0.0 0.0 0.00 0.00 0.00 97 1014.5
20260905060016 61 333 0.0 0.0 0.00 0.00 0.00 98 1014.5
20260905054516 61 333 0.0 0.0 0.00 0.00 0.00 98 1014.4
20260905053015 61 333 0.0 0.0 0.00 0.00 0.00 97 1014.5
20260905051526 61 333 0.0 1.0 0.00 0.00 0.00 98 1014.6
20260905050013 62 333 0.0 0.0 0.00 0.00 0.00 97 1014.5
20260905044513 61 333 0.0 1.0 0.00 0.00 0.00 97 1014.6
20260905043010 62 333 0.0 0.0 0.00 0.00 0.00 97 1014.6
20260905041507 62 333 0.0 0.0 0.00 0.00 0.00 97 1014.6
20260905040004 63 333 0.0 0.0 0.00 0.00 0.00 97 1014.6
20260905034506 63 333 0.0 0.0 0.00 0.00 0.00 97 1014.6
20260905033003 63 333 0.0 0.0 0.00 0.00 0.00 96 1014.6
20260905031503 63 333 0.0 0.0 0.00 0.00 0.00 96 1014.4
20260905030006 64 333 0.0 0.0 0.00 0.00 0.00 96 1014.5
20260905024502 65 333 0.0 0.0 0.00 0.00 0.00 96 1014.5
20260905023005 65 333 0.0 0.0 0.00 0.00 0.00 96 1014.6
20260905021501 65 333 0.0 0.0 0.00 0.00 0.00 95 1014.5
20260905020100 66 333 0.0 0.0 0.00 0.00 0.00 95 1014.5
20260905014600 66 333 0.0 0.0 0.00 0.00 0.00 95 1014.4
20260905013059 67 333 0.0 0.0 0.00 0.00 0.00 95 1014.6
20260905011601 67 333 0.0 0.0 0.00 0.00 0.00 94 1014.6
20260905010101 67 333 0.0 1.0 0.00 0.00 0.00 94 1014.7
20260905004601 68 333 0.0 0.0 0.00 0.04 0.00 94 1014.6
20260905003057 68 333 0.0 0.0 0.00 0.04 0.00 93 1014.5
20260905001556 68 333 0.0 1.0 0.00 0.04 0.00 92 1014.2
20260905000056 69 333 0.0 0.0 0.00 0.04 0.00 92 1014.2
20260904234555 69 333 0.0 0.0 0.00 0.24 0.00 91 1014.1
20260904233102 70 333 0.0 0.0 0.00 0.24 0.00 91 1014.1
20260904231555 70 333 0.0 0.0 0.00 0.24 0.00 90 1014.1
20260904230054 71 333 0.0 0.0 0.00 0.24 0.00 89 1014.0
20260904224554 71 333 0.0 0.0 0.00 0.24 0.00 88 1013.8
20260904223054 72 333 0.0 0.0 0.00 0.24 0.00 87 1013.6
20260904221559 72 333 0.0 0.0 0.00 0.24 0.00 85 1013.6
20260904220053 73 333 0.0 0.0 0.00 0.24 0.00 81 1013.1
20260904214551 73 333 0.0 0.0 0.00 0.28 0.00 79 1013.0
20260904213050 73 332 0.0 3.0 0.00 0.28 0.00 79 1013.2
20260904211553 73 338 0.0 0.0 0.00 0.28 0.00 77 1013.3
20260904210048 73 338 0.0 2.0 0.00 0.28 0.00 79 1013.6
20260904204546 74 332 0.0 2.0 0.00 0.31 0.00 77 1013.7
20260904203047 75 332 0.0 4.0 0.00 0.31 0.00 74 1013.6
20260904201545 75 323 2.0 5.0 0.00 0.31 0.00 70 1013.9
20260904200051 76 319 3.0 8.0 0.00 0.31 0.00 70 1013.9
20260904194642 75 25 1.0 7.0 0.00 0.31 0.00 76 1014.1
20260904193046 74 313 1.0 8.0 0.00 0.31 0.00 75 1014.5
20260904191542 75 331 1.0 5.0 0.00 0.31 0.00 73 1014.7